Location: Bottom School (historical)
(37.9078°N, 89.3593°W)
Time: 22:59:34
(UTC+00:00)

Cosmos 1570 Rocket - Pass Details

Date: 06 July 2022
Orbit: 762 x 788 km, 74.1° (Epoch: 07 August)

Event Time Altitude Azimuth Distance (km) Brightness Sun altitude
Exits shadow 06:38:02 14° 96° (E) 2,052 6.2 -28.8°
Maximum altitude 06:38:09 14° 94° (E) 2,051 6.2 -28.8°
Drops below altitude 10° 06:40:40 10° 65° (ENE) 2,306 6.9 -28.7°
Sets 06:44:14 0° 40° (NE) 3,244 8.1 -28.6°
